Погода в Бугульме

Хотите узнать прогноз погоды в Бугульме? Тогда Вам сюда: Погода в Бугульме

Поиск расширенной информации на нашем сайте:

Полезная информация:

Новости сайта



02.01.2020
Опубликован Долгосрочный прогноз погоды по городам России и ближнего зарубежья на январь 2020 года.
Карты: Прогноз на январь и февраль 2020 года, Сравнение прогнозируемой аномалии приземной температуры воздуха на январь 2020 года по разным моделям.




Погода в Бугульме - сегодня

Время (UTC), дата Ветер
(°,м/с) 
Видим.   Явления Облачность Т
(°С)
Тd
(°С)
f(%) Тe
(°С)
Pmin
(гПа)
dP
(гПа)
Po
(мм)
O2
(г/м3)
Тmin Tmax R s Состояние
почвы
15 16.04.21 030 (СВ) 5{10}  20000 м    6/3 1000 м верхняя 
[Sc|Ci fib]
+14.2 +3.4 48 +14  1021.3  0.5  739  282    +20       
18 16.04.21 050 (СВ) 10 км    6/3 1000 м верхняя 
[Sc|Ci fib]
+9 +2.1 62 +8  1023.1  1.2  740  288           
21 16.04.21 030 (СВ) 10 км    6/3 1000 м верхняя 
[Sc|Ci fib]
+5.7 -2.4 56 +4  1023.7  740  292           
00 17.04.21 040 (СВ) 10 км    6/3 1000 м верхняя 
[Sc|Ci fib]
+4 -5.4 50 +2  1023.8  -0.1  740  294           
03 17.04.21 040 (СВ) 20000 м    3/0 верхняя 
[Ci fib]
+4.3 -5.9 47 +3  1024.2  0.4  740  294  +2.2        мокрая 
06 17.04.21 050 (СВ) 20000 м    ясно 
+11.2 -6.1 29 +10  1023.6  0.3  740  287           
09 17.04.21 030 (СВ) 5{10}  20000 м    ясно 
+14.9 -8.4 19 +14  1022.5  -0.6  740  283           
12 17.04.21 030 (СВ) 5{10}  20000 м    ясно 
+16.2 -8.1 18 +16  1021.5  -0.8  739  282           
15 17.04.21 030 (СВ) 20000 м    ясно 
+12.4 -7.7 24 +12  1021.4  -0.5  739  285    +16.2       
18 17.04.21 010 (С) 10 км    ясно 
+4 -9.9 35 +4  1022.6  739  294           
21 17.04.21 030 (СВ) 10 км    ясно 
+1.6 -8.7 46 +1  1022.5  -0.4  739  297           
00 18.04.21 030 (СВ) 10 км    ясно 
+0.6 -8.8 49 1021.8  -0.8  738  298           
03 18.04.21 030 (СВ) 20000 м    ясно 
+4.3 -7.1 43 +5  1021.1  -0.2  738  293  -2.6        замёрзшая 
06 18.04.21 030 (СВ) 20000 м    3/0 верхняя 
[Ci fib]
+11 -8.9 24 +10  1020  -0.2  738  287           
09 18.04.21 040 (СВ) 20000 м    3/0 верхняя 
[Ci fib]
+14.2 -8.6 20 +14  1019  -0.6  737  283           
12 18.04.21 040 (СВ) 5-10{11}  20000 м    3/0 верхняя 
[Ci fib]
+14.7 -7.9 20 +14  1019.2  0.2  737  283           
15 18.04.21 030 (СВ) 6-11{11}  20000 м    3/0 средняя 
[Ac trans]
+11.2 -5.1 31 +10  1020.4  0.8  738  286    +15.3       
18 18.04.21 040 (СВ) 4{11}  10 км    3/0 средняя 
[Ac trans]
+5.1 -4.8 49 +3  1023.1  1.8  739  293           
21 18.04.21 060 (СВ) 10 км    3/0 средняя 
[Ac trans]
+2.1 -8 47 -1  1024.4  0.8  740  297           
00 19.04.21 050 (СВ) 10 км    3/0 средняя 
[Ac trans]
-0.7 -9.7 51 -4  1025  0.2  740  300           
03 19.04.21 060 (СВ) 20000 м    3/0 верхняя 
[Ci fib]
-0.4 -10.1 48 -3  1025.9  0.9  741  300  -1.9        замёрзшая 
06 19.04.21 080 (В) 6-12{12}  20000 м    6/0 средняя, верхняя 
[Ac trans|Ci fib]
+4.5 -10.1 34 +2  1025.9  0.7  741  295           
09 19.04.21 070 (В) 7-12{13}  20000 м    10/3 600 м средняя, верхняя 
[Sc diur, vesp|Ac trans|Ci fib]
+7.8 -10.4 26 +6  1026.2  0.7  742  292           
12 19.04.21 070 (В) 7-13{14}  20000 м    10/4 600 м средняя, верхняя 
[Sc|Ac trans|Ci fib]
+8.6 -11.7 22 +6  1026.6  0.5  742  291           
15 19.04.21 070 (В) 5{13}  20000 м    4/3 600 м верхняя 
[Sc|Ci fib]
+6.1 -14.4 21 +4  1027.6  0.6  743  294    +8.9       
Время (UTC), дата Ветер
(°,м/с) 
Видим.   Явления Облачность Т
(°С)
Тd
(°С)
f(%) Тe
(°С)
Pmin
(гПа)
dP
(гПа)
Po
(мм)
O2
(г/м3)
Тmin Tmax R s Состояние
почвы

Для получения пояснительной информации подведите курсор к названию столбца.

ПОГОДА в Бугульме - архив

Всё, что Вы хотите узнать о погоде в Бугульме - удобно и подробно!

Выберите нужную дату (начиная с 1 января 2019* года) и нажмите кнопку "Найти".
Будут отображены архивные сводки погоды по пункту Бугульма, начиная с указанной даты.


Отображать данные в формате CSV (для использования в таблицах Excel)


Внимание! Наш архив погоды предназначен исключительно для личного некоммерческого использования в познавательных целях. Если Вам необходимы официальные справки о состоянии погоды (для производственных, юридических, коммерческих и т.п. целей), обращайтесь в органы Росгидромета.

*Примечание: данная дата относится к архиву по метеостанциям СССР (Россия, СНГ, Балтия).
Архив по метеостанциям Зарубежной Европы и Азии (кроме Китая) хранится 10 дней, по другим регионам земного шара (Китай, Африка, Америка, Австралия, Океания) - 1 день.

Бугульма - район местоположения метеостанции


Название, широта, долгота, высота метеостанции:
Бугульма 54.6°ш. 52.8°д. 304 м над ур. моря [Российская Федерация]

Дополнительная информация

В oтличие oт бoльшинства пoгoдных сайтoв мы публикуем пoдрoбную метеoинфoрмацию в детальнoм прoфессиoнальнoм фoрмате.

Характеристики температуры и влажнoсти вoздуха измеряются на высoте 2 м в тени вдали oт зданий и деревьев.
Скoрoсть ветра измеряется на высoте 10 м (на урoвне рoста челoвека скoрoсть ветра ниже в 1.5-2 раза). Если метеoстанция нахoдится в гoрoде или в лесу, тo скoрoсть ветра занижена на 2-4 м/с пo сравнению с oткрытым местoм. Скoрoсть ветра над акватoриями крупных рек и oзёр, а также на вершинах хoлмoв на 2-5 м/с выше, чем в oбычных услoвиях.
Атмoсфернoе давление в разных тoчках местнoсти мoжет значительнo oтличаться oт давления на метеoстанции, в зависимoсти oт услoвий рельефа (при пoдъёме на 10 м давление пoнижается примернo на 1 мм рт.ст.).